FW3849 Weather Reports


time (UTC)temp
F
wind
direction
speed
knots
gust
knots
rain 1hr
in
rain 24hr
in
rain mn
in
humidity
%
barometer
mb
20260505185623 89 351 6.1 12.2 0.00 0.00 0.00 10 1006.8
20260505185023 89 324 7.0 14.8 0.00 0.00 0.00 9 1006.8
20260505184523 89 284 7.0 19.1 0.00 0.00 0.00 9 1006.9
20260505184023 89 340 7.8 19.1 0.00 0.00 0.00 9 1007.0
20260505183521 90 320 6.1 13.9 0.00 0.00 0.00 9 1007.1
20260505183021 90 330 6.1 13.0 0.00 0.00 0.00 9 1007.1
20260505182521 90 38 5.2 13.9 0.00 0.00 0.00 9 1007.2
20260505182022 89 344 4.3 13.9 0.00 0.00 0.00 10 1007.3
20260505181521 89 299 7.0 17.4 0.00 0.00 0.00 10 1007.5
20260505181021 89 286 7.8 17.4 0.00 0.00 0.00 9 1007.5
20260505180619 89 344 5.2 12.2 0.00 0.00 0.00 10 1007.5
20260505180022 89 319 5.2 12.2 0.00 0.00 0.00 10 1007.7
20260505175522 89 336 7.8 13.9 0.00 0.00 0.00 10 1007.6
20260505175021 88 327 4.3 16.5 0.00 0.00 0.00 11 1007.6
20260505174521 88 318 5.2 16.5 0.00 0.00 0.00 10 1007.7
20260505174021 89 342 6.1 16.5 0.00 0.00 0.00 11 1007.6
20260505173521 89 343 9.6 16.5 0.00 0.00 0.00 11 1007.7
20260505173019 88 19 3.5 11.3 0.00 0.00 0.00 12 1007.7
20260505172520 88 333 6.1 12.2 0.00 0.00 0.00 12 1007.8
20260505172019 87 348 3.5 9.6 0.00 0.00 0.00 15 1007.8
20260505171522 87 334 5.2 9.6 0.00 0.00 0.00 15 1007.9
20260505171016 86 346 5.2 7.8 0.00 0.00 0.00 17 1007.7
20260505170516 86 346 5.2 7.8 0.00 0.00 0.00 17 1007.9
20260505170017 86 351 5.2 7.8 0.00 0.00 0.00 17 1008.0
20260505165512 85 27 4.3 8.7 0.00 0.00 0.00 21 1008.0
20260505165013 85 335 2.6 8.7 0.00 0.00 0.00 23 1008.0
20260505164509 84 346 3.5 8.7 0.00 0.00 0.00 21 1008.0
20260505164008 83 353 3.5 11.3 0.00 0.00 0.00 23 1008.0
20260505163509 83 354 2.6 11.3 0.00 0.00 0.00 26 1007.9
20260505163009 83 341 3.5 8.7 0.00 0.00 0.00 25 1007.9
20260505162505 83 338 4.3 9.6 0.00 0.00 0.00 24 1007.9
20260505162004 82 313 4.3 9.6 0.00 0.00 0.00 27 1008.0
20260505161503 81 342 2.6 6.1 0.00 0.00 0.00 35 1007.9
20260505161001 80 24 0.0 3.5 0.00 0.00 0.00 40 1008.0
20260505160601 78 175 0.0 2.6 0.00 0.00 0.00 43 1007.9
20260505153058 75 144 1.7 4.3 0.00 0.00 0.00 54 1007.9
20260505152557 74 117 0.9 4.3 0.00 0.00 0.00 55 1007.9
20260505152055 74 165 2.6 5.2 0.00 0.00 0.00 55 1007.9
20260505151555 74 202 3.5 6.1 0.00 0.00 0.00 54 1008.0
20260505151057 74 214 1.7 5.2 0.00 0.00 0.00 53 1007.9
20260505150553 73 193 0.9 4.3 0.00 0.00 0.00 55 1007.8
20260505140539 68 174 1.7 3.5 0.00 0.00 0.00 62 1007.9
20260505125029 65 196 0.0 0.9 0.00 0.00 0.00 64 1007.1
20260505124530 65 196 0.0 0.9 0.00 0.00 0.00 64 1007.0
20260505124027 65 196 0.0 0.9 0.00 0.00 0.00 64 1006.9
20260505123530 65 196 0.0 0.9 0.00 0.00 0.00 65 1006.8
20260505123026 65 196 0.0 1.7 0.00 0.00 0.00 64 1006.7
20260505122526 65 196 0.0 2.6 0.00 0.00 0.00 64 1006.6
20260505122028 65 231 0.9 2.6 0.00 0.00 0.00 64 1006.5
20260505121526 65 269 0.0 0.9 0.00 0.00 0.00 64 1006.5
20260505121025 65 270 0.0 0.9 0.00 0.00 0.00 64 1006.6
20260505120525 65 270 0.0 0.0 0.00 0.00 0.00 64 1006.5
20260505115527 65 270 0.0 0.9 0.00 0.00 0.00 64 1006.4
20260505115027 65 271 0.0 0.9 0.00 0.00 0.00 64 1006.4
20260505114527 65 275 0.0 1.7 0.00 0.00 0.00 64 1006.4
20260505114027 65 277 0.0 1.7 0.00 0.00 0.00 65 1006.3
20260505113525 65 279 0.0 0.9 0.00 0.00 0.00 64 1006.3
20260505113025 65 278 0.0 0.0 0.00 0.00 0.00 64 1006.3
20260505112525 65 271 0.0 0.0 0.00 0.00 0.00 64 1006.4
20260505112025 65 270 0.0 1.7 0.00 0.00 0.00 64 1006.4
20260505111533 65 269 0.0 1.7 0.00 0.00 0.00 63 1006.4
20260505111023 65 269 0.0 1.7 0.00 0.00 0.00 63 1006.2
20260505110522 66 269 0.0 1.7 0.00 0.00 0.00 63 1006.3
20260505102013 68 269 0.0 1.7 0.00 0.00 0.00 60 1006.1
20260505101513 68 269 0.0 2.6 0.00 0.00 0.00 60 1006.1
20260505101013 68 269 0.0 2.6 0.00 0.00 0.00 60 1006.2
20260505100513 69 193 0.0 2.6 0.00 0.00 0.00 60 1006.1
20260505095513 69 193 0.0 1.7 0.00 0.00 0.00 60 1006.0
20260505095012 69 193 0.9 1.7 0.00 0.00 0.00 59 1006.0
20260505094612 69 193 0.0 1.7 0.00 0.00 0.00 59 1006.0
20260505094012 69 193 0.9 2.6 0.00 0.00 0.00 60 1005.9
20260505093512 69 193 0.9 3.5 0.00 0.00 0.00 60 1006.0
20260505093012 69 193 1.7 3.5 0.00 0.00 0.00 60 1005.9
20260505092512 69 193 0.0 1.7 0.00 0.00 0.00 60 1006.0
20260505092011 69 193 0.0 1.7 0.00 0.00 0.00 59 1006.0
20260505091511 69 193 0.0 1.7 0.00 0.00 0.00 59 1006.0
20260505091011 69 193 0.0 1.7 0.00 0.00 0.00 59 1006.1
20260505090512 69 193 0.0 1.7 0.00 0.00 0.00 59 1005.9
20260505085510 70 193 0.0 3.5 0.00 0.00 0.00 59 1006.0
20260505085011 70 193 1.7 5.2 0.00 0.00 0.00 59 1005.9
20260505084517 70 220 1.7 5.2 0.00 0.00 0.00 59 1006.0
20260505084010 70 212 1.7 3.5 0.00 0.00 0.00 58 1006.0
20260505083510 70 197 1.7 3.5 0.00 0.00 0.00 58 1006.2
20260505083013 70 185 0.9 3.5 0.00 0.00 0.00 58 1006.2
20260505082509 70 166 0.9 2.6 0.00 0.00 0.00 58 1006.0
20260505082011 70 167 0.9 2.6 0.00 0.00 0.00 57 1006.3
20260505081510 70 166 0.0 1.7 0.00 0.00 0.00 57 1006.3
20260505081010 70 166 0.0 1.7 0.00 0.00 0.00 57 1006.3
20260505080511 71 167 0.9 3.5 0.00 0.00 0.00 57 1006.4
20260505075510 71 193 0.0 2.6 0.00 0.00 0.00 56 1006.6
20260505075014 71 193 0.0 0.9 0.00 0.00 0.00 56 1006.5
20260505074510 71 193 0.0 2.6 0.00 0.00 0.00 56 1006.6
20260505074011 71 193 0.0 3.5 0.00 0.00 0.00 55 1006.5
20260505073511 71 193 1.7 3.5 0.00 0.00 0.00 55 1006.5
20260505073012 71 164 0.9 3.5 0.00 0.00 0.00 55 1006.6
20260505072510 72 186 0.9 3.5 0.00 0.00 0.00 55 1006.7
20260505072010 72 187 1.7 4.3 0.00 0.00 0.00 54 1006.9
20260505071523 72 194 1.7 4.3 0.00 0.00 0.00 54 1006.9
20260505071010 72 191 1.7 3.5 0.00 0.00 0.00 54 1006.9
20260505070510 72 203 2.6 7.8 0.00 0.00 0.00 53 1007.1
20260505065507 72 219 3.5 10.4 0.00 0.00 0.00 53 1007.1
20260505065008 73 181 3.5 10.4 0.00 0.00 0.00 53 1007.0
20260505064516 73 192 6.1 8.7 0.00 0.00 0.00 53 1006.9
20260505064007 73 201 4.3 7.8 0.00 0.00 0.00 53 1007.2
20260505063507 73 196 3.5 10.4 0.00 0.00 0.00 53 1007.4
20260505063013 73 181 5.2 10.4 0.00 0.00 0.00 52 1007.1
20260505062507 73 195 2.6 7.8 0.00 0.00 0.00 52 1007.3
20260505062006 73 179 4.3 9.6 0.00 0.00 0.00 52 1007.2
20260505061509 73 212 3.5 10.4 0.00 0.00 0.00 52 1007.5
20260505061012 73 191 7.8 12.2 0.00 0.00 0.00 52 1007.5
20260505060508 73 168 7.0 12.2 0.00 0.00 0.00 52 1007.3
20260505055506 73 208 4.3 8.7 0.00 0.00 0.00 53 1007.5
20260505055006 72 191 1.7 4.3 0.00 0.00 0.00 53 1007.6
20260505054506 72 165 0.9 4.3 0.00 0.00 0.00 53 1007.6
20260505054006 72 164 1.7 5.2 0.00 0.00 0.00 53 1007.7
20260505053505 73 156 1.7 5.2 0.00 0.00 0.00 53 1007.8
20260505053005 73 186 1.7 3.5 0.00 0.00 0.00 52 1007.8
20260505052506 73 185 1.7 4.3 0.00 0.00 0.00 52 1007.7
20260505052005 73 185 2.6 4.3 0.00 0.00 0.00 52 1007.8
20260505051507 73 165 1.7 5.2 0.00 0.00 0.00 51 1007.7
20260505051008 73 189 2.6 7.8 0.00 0.00 0.00 51 1007.7
20260505050504 74 155 2.6 4.3 0.00 0.00 0.00 50 1007.6
20260505041513 75 186 1.7 7.0 0.00 0.00 0.00 47 1007.6
20260505041006 75 187 2.6 7.0 0.00 0.00 0.00 46 1007.5
20260505040506 75 206 4.3 9.6 0.00 0.00 0.00 46 1007.5
20260505035505 75 202 6.1 9.6 0.00 0.00 0.00 46 1007.4
20260505035003 75 196 2.6 5.2 0.00 0.00 0.00 46 1007.2
20260505034503 75 185 2.6 5.2 0.00 0.00 0.00 46 1007.2
20260505034003 76 190 2.6 7.0 0.00 0.00 0.00 46 1007.4
20260505033502 76 202 2.6 8.7 0.00 0.00 0.00 45 1007.2
20260505033002 76 181 3.5 9.6 0.00 0.00 0.00 45 1007.2
20260505032502 76 201 4.3 9.6 0.00 0.00 0.00 44 1007.1
20260505032004 76 197 5.2 13.0 0.00 0.00 0.00 44 1007.0
20260505031502 77 200 7.0 13.0 0.00 0.00 0.00 43 1007.0
20260505031001 77 191 5.2 9.6 0.00 0.00 0.00 43 1007.0
20260505030501 77 194 5.2 11.3 0.00 0.00 0.00 43 1006.9
20260505025600 77 185 5.2 11.3 0.00 0.00 0.00 43 1006.6
20260505025100 77 204 7.0 11.3 0.00 0.00 0.00 43 1006.5
20260505024602 77 197 6.1 10.4 0.00 0.00 0.00 43 1006.6
20260505024102 77 196 3.5 9.6 0.00 0.00 0.00 42 1006.8
20260505023559 78 175 5.2 9.6 0.00 0.00 0.00 41 1006.8
20260505023108 78 191 3.5 8.7 0.00 0.00 0.00 41 1006.8
20260505022559 78 191 3.5 7.8 0.00 0.00 0.00 41 1006.7
20260505022059 78 202 3.5 8.7 0.00 0.00 0.00 40 1006.5
20260505021601 78 183 3.5 8.7 0.00 0.00 0.00 40 1006.6
20260505021058 79 169 3.5 9.6 0.00 0.00 0.00 39 1006.4
20260505020557 79 190 3.5 8.7 0.00 0.00 0.00 38 1006.4
20260505015557 79 220 2.6 8.7 0.00 0.00 0.00 38 1006.5
20260505015059 79 133 1.7 7.8 0.00 0.00 0.00 38 1006.4
20260505014600 80 185 3.5 7.8 0.00 0.00 0.00 38 1006.3
20260505014056 80 175 3.5 8.7 0.00 0.00 0.00 37 1006.2
20260505013556 80 150 4.3 8.7 0.00 0.00 0.00 37 1006.1
20260505013055 80 164 4.3 8.7 0.00 0.00 0.00 37 1006.1
20260505012556 80 188 4.3 8.7 0.00 0.00 0.00 36 1006.0
20260505012058 81 191 4.3 8.7 0.00 0.00 0.00 36 1005.9
20260505011556 81 149 4.3 10.4 0.00 0.00 0.00 35 1005.9
20260505011057 81 185 5.2 10.4 0.00 0.00 0.00 34 1006.0
20260505010554 82 218 6.1 10.4 0.00 0.00 0.00 33 1006.0
20260505005556 83 193 6.1 9.6 0.00 0.00 0.00 32 1006.0
20260505005055 83 172 5.2 10.4 0.00 0.00 0.00 31 1006.0
20260505004554 83 207 7.0 14.8 0.00 0.00 0.00 31 1006.0
20260505004054 84 205 7.8 14.8 0.00 0.00 0.00 30 1005.9
20260505003557 84 168 7.8 14.8 0.00 0.00 0.00 29 1006.0
20260505003059 84 229 8.7 13.9 0.00 0.00 0.00 29 1006.1
20260505002552 84 201 6.1 13.9 0.00 0.00 0.00 29 1006.1
20260505002052 85 199 7.0 11.3 0.00 0.00 0.00 28 1006.2
20260505001551 84 192 8.7 12.2 0.00 0.00 0.00 28 1006.2
20260505001050 84 184 8.7 12.2 0.00 0.00 0.00 28 1006.3
20260505000549 85 206 7.8 13.0 0.00 0.00 0.00 29 1006.3
20260504235551 85 204 7.0 13.0 0.00 0.00 0.00 29 1006.5
20260504235049 85 207 8.7 12.2 0.00 0.00 0.00 29 1006.3
20260504234548 84 214 7.8 13.0 0.00 0.00 0.00 29 1006.5
20260504234048 84 207 9.6 13.0 0.00 0.00 0.00 29 1006.6
20260504233548 84 198 7.8 13.0 0.00 0.00 0.00 29 1006.7
20260504233049 85 200 9.6 13.0 0.00 0.00 0.00 28 1006.7
20260504232546 85 213 7.8 13.0 0.00 0.00 0.00 28 1006.7
20260504232049 85 215 7.8 13.0 0.00 0.00 0.00 28 1006.8
20260504231547 85 231 7.8 13.9 0.00 0.00 0.00 28 1006.9
20260504231144 86 220 8.7 10.4 0.00 0.00 0.00 27 1006.9
20260504230546 86 200 8.7 13.0 0.00 0.00 0.00 26 1006.8
20260504225545 86 177 8.7 12.2 0.00 0.00 0.00 26 1006.9
20260504225045 86 208 7.8 13.9 0.00 0.00 0.00 26 1006.9
20260504224542 86 220 8.7 13.9 0.00 0.00 0.00 26 1007.0
20260504224045 86 233 8.7 12.2 0.00 0.00 0.00 25 1007.0
20260504223541 86 210 6.1 10.4 0.00 0.00 0.00 26 1007.2
20260504223040 86 245 5.2 14.8 0.00 0.00 0.00 25 1007.2
20260504222540 86 224 7.0 14.8 0.00 0.00 0.00 26 1007.2
20260504222041 86 218 4.3 10.4 0.00 0.00 0.00 25 1007.2
20260504221541 86 237 7.0 12.2 0.00 0.00 0.00 26 1007.3
20260504221038 86 245 6.1 13.0 0.00 0.00 0.00 26 1007.2
20260504220537 86 189 6.1 10.4 0.00 0.00 0.00 26 1007.2
20260504215537 86 215 7.0 10.4 0.00 0.00 0.00 26 1007.4
20260504215036 86 204 7.8 10.4 0.00 0.00 0.00 26 1007.6
20260504214546 86 196 6.1 11.3 0.00 0.00 0.00 26 1007.7
20260504214035 85 200 7.8 11.3 0.00 0.00 0.00 26 1007.7
20260504213534 85 212 7.0 10.4 0.00 0.00 0.00 26 1007.9
20260504213040 85 202 7.0 10.4 0.00 0.00 0.00 27 1007.9
20260504212534 86 193 7.0 10.4 0.00 0.00 0.00 26 1007.9
20260504212032 85 208 2.6 12.2 0.00 0.00 0.00 27 1008.0
20260504211531 85 271 7.0 12.2 0.00 0.00 0.00 28 1008.2
20260504211029 85 191 5.2 7.8 0.00 0.00 0.00 28 1008.2
20260504210529 84 179 7.0 13.9 0.00 0.00 0.00 28 1008.3
20260504205528 84 202 6.1 13.9 0.00 0.00 0.00 28 1008.7
20260504205027 84 200 8.7 11.3 0.00 0.00 0.00 28 1008.7
20260504204528 84 218 4.3 11.3 0.00 0.00 0.00 29 1008.8
20260504204025 84 247 7.0 11.3 0.00 0.00 0.00 29 1008.7
20260504203524 84 214 7.0 11.3 0.00 0.00 0.00 29 1008.9
20260504203024 83 207 6.1 11.3 0.00 0.00 0.00 31 1008.9
20260504202522 83 201 6.1 11.3 0.00 0.00 0.00 30 1008.9
20260504202021 83 177 6.1 11.3 0.00 0.00 0.00 31 1009.1
20260504201519 83 189 7.8 11.3 0.00 0.00 0.00 31 1009.3
20260504201018 82 206 4.3 8.7 0.00 0.00 0.00 32 1009.3
20260504200518 82 248 5.2 11.3 0.00 0.00 0.00 32 1009.4
20260504195519 82 223 4.3 10.4 0.00 0.00 0.00 32 1009.4
20260504195019 81 198 5.2 10.4 0.00 0.00 0.00 32 1009.6
20260504194521 81 214 5.2 10.4 0.00 0.00 0.00 33 1009.6
20260504194021 81 216 7.0 11.3 0.00 0.00 0.00 33 1009.7
20260504193519 81 218 7.8 11.3 0.00 0.00 0.00 32 1009.6
20260504193017 81 219 4.3 11.3 0.00 0.00 0.00 33 1009.7
20260504192516 81 258 3.5 10.4 0.00 0.00 0.00 32 1009.9
20260504192016 81 256 5.2 10.4 0.00 0.00 0.00 33 1010.0
20260504191527 81 208 7.0 10.4 0.00 0.00 0.00 33 1009.9
20260504191016 81 250 7.0 9.6 0.00 0.00 0.00 32 1009.9
20260504190516 81 245 6.1 9.6 0.00 0.00 0.00 32 1009.9